GFSNIL_sfc_temp_000.txt.gz
Temp
40 41 40 38 37 34 33 33 34 33 32 32 32 31 31 30 30 30 30 29 29 30
41 38 37 35 34 33 32 35 32 31 30 30 30 30 29 28 28 29 29 29 29 29
39 36 35 33 32 31 31 31 30 29 29 29 28 28 27 27 28 27 28 29 28 28
35 34 33 33 31 30 30 29 28 28 27 27 26 26 25 25 25 22 23 24 24 24
34 33 32 31 30 29 28 27 26 26 25 25 25 24 23 22 21 20 20 22 22 22
33 32 31 30 29 28 26 25 25 24 23 23 23 22 22 22 21 21 20 21 20 20
31 31 30 29 27 26 25 23 23 22 22 21 21 21 21 22 21 20 20 21 21 20
30 29 28 25 23 22 21 22 22 20 20 20 19 20 19 21 18 18 19 21 22 22
27 25 23 20 20 19 18 18 18 17 16 16 19 23 25 24 20 20 20 19 21 22
24 22 20 19 18 17 17 18 17 17 17 17 18 22 24 24 23 20 19 20 20 21
22 20 18 17 17 17 17 16 15 16 16 16 17 22 23 23 22 19 20 21 22 22
21 18 17 15 15 15 15 14 14 15 13 13 13 18 21 23 18 19 19 22 24 23
20 17 15 15 14 14 14 14 15 14 14 13 11 17 21 24 17 14 18 20 24 24
17 15 15 13 13 12 12 13 12 12 13 13 14 14 22 24 21 19 19 18 18 20

GFSNIL_sfc_temp_003.txt.gz
Temp
40 42 40 39 38 37 36 35 33 31 31 31 31 30 31 30 30 30 30 29 29 29
40 41 40 38 37 36 35 35 32 31 30 29 29 30 29 28 28 29 30 30 29 28
40 41 40 36 35 33 33 33 31 29 29 28 28 28 28 27 28 27 28 29 27 27
38 38 36 36 35 33 33 31 30 29 28 28 27 27 26 26 25 23 23 25 25 25
35 35 35 35 32 31 31 30 29 28 27 26 26 25 24 22 22 21 22 23 23 22
34 33 33 31 30 30 29 27 27 26 25 24 24 23 23 23 23 22 22 22 21 20
34 33 32 30 29 29 28 26 24 24 22 22 22 22 22 23 22 21 21 21 21 20
34 33 30 28 27 24 24 24 23 21 21 21 21 21 21 22 20 19 20 21 21 21
30 27 26 25 23 23 22 20 21 19 19 18 21 25 26 23 20 20 20 20 21 22
27 25 25 24 23 22 20 20 20 18 18 18 20 26 27 27 24 22 21 21 21 21
26 25 23 22 21 20 19 17 17 17 17 18 19 25 26 26 23 22 21 21 21 21
25 23 21 20 19 19 17 16 16 16 15 16 17 25 26 25 21 21 21 22 23 23
24 21 19 20 18 17 16 15 16 14 13 14 11 22 24 25 21 13 17 20 23 24
22 20 20 18 17 14 14 15 14 13 13 12 12 14 24 26 20 16 15 18 18 21

GFSNIL_sfc_temp_006.txt.gz
Temp
44 40 42 39 39 38 37 37 35 33 31 31 31 30 30 29 29 29 30 28 28 29
43 40 41 38 38 38 36 34 32 32 31 30 30 30 29 28 28 29 29 29 29 28
41 40 40 35 35 35 33 33 31 31 30 29 29 28 28 27 28 27 27 28 27 27
38 38 36 35 34 33 33 33 32 32 30 29 28 28 26 26 26 25 24 25 25 25
38 36 35 35 34 33 33 32 32 31 30 28 28 26 26 24 24 22 22 23 23 22
35 36 37 35 32 32 32 31 31 30 29 28 26 25 25 24 23 22 22 23 23 22
35 36 36 35 33 33 32 30 30 29 28 26 24 24 24 23 22 21 21 22 22 22
37 36 35 31 31 31 30 29 29 26 24 24 23 23 23 23 20 20 21 22 22 22
34 32 30 29 29 28 28 26 26 24 23 21 24 28 29 24 20 21 21 20 21 23
31 29 28 28 27 26 25 25 24 22 21 20 22 30 30 28 22 20 21 22 22 22
29 27 26 26 25 26 25 23 23 21 21 21 21 31 31 29 23 21 22 22 22 22
29 27 25 24 25 25 24 23 22 21 20 19 20 31 32 29 21 21 21 22 23 22
28 26 25 25 24 24 23 22 22 19 19 19 18 30 31 28 21 17 19 20 23 24
23 23 23 23 22 21 21 19 19 17 16 17 17 24 30 30 20 17 16 17 18 22

GFSNIL_sfc_temp_009.txt.gz
Temp
43 42 41 39 40 38 38 38 36 35 33 32 32 31 31 30 30 29 30 29 29 29
42 39 40 37 38 38 37 37 33 35 33 32 31 31 30 30 29 29 29 29 29 28
41 40 40 36 36 36 36 35 33 33 33 32 31 30 30 29 28 28 28 29 27 27
40 39 39 37 37 36 35 34 33 33 32 31 30 30 29 28 27 27 26 26 26 26
39 37 38 37 36 36 34 33 33 33 33 32 31 30 29 27 26 25 25 25 25 24
37 35 37 37 35 34 34 33 33 32 32 31 31 29 29 28 26 25 25 25 24 23
37 37 38 38 34 34 34 32 31 32 32 31 30 29 28 27 25 24 23 24 23 22
38 38 37 36 33 33 32 33 32 30 30 30 29 28 26 26 23 22 21 22 23 22
37 34 35 34 32 31 31 30 30 29 28 27 29 33 32 27 23 22 22 20 21 22
31 31 32 31 30 30 29 29 29 28 28 27 28 34 34 30 24 22 22 22 22 22
32 32 30 28 28 28 29 28 28 28 27 27 27 34 34 31 24 23 23 23 23 23
28 30 27 27 27 28 28 27 27 27 25 25 25 35 35 30 22 22 22 23 24 23
25 25 26 27 26 27 28 26 27 24 25 25 23 34 34 29 22 19 20 22 23 24
20 21 22 25 25 24 24 24 23 22 22 22 23 30 35 32 22 20 19 19 20 22

GFSNIL_sfc_temp_012.txt.gz
Temp
42 41 42 39 40 38 38 39 37 35 35 34 33 33 32 32 31 30 31 30 29 30
39 38 39 36 37 38 39 38 35 36 34 33 33 33 31 32 30 30 30 30 29 28
40 40 39 36 37 37 37 36 33 35 34 33 33 32 31 31 30 30 29 30 29 28
36 36 37 36 37 37 36 35 33 35 34 33 33 32 32 31 29 30 28 28 28 27
36 35 35 35 36 36 35 34 35 35 34 34 34 32 32 30 29 28 27 27 27 26
35 34 36 37 37 35 36 34 35 34 34 33 33 32 32 32 30 29 29 27 26 25
35 36 38 38 36 35 35 34 34 34 34 33 33 32 32 31 29 28 27 26 26 25
36 35 36 36 35 33 34 34 34 32 32 32 32 32 31 31 28 27 25 25 26 25
35 33 32 34 33 31 32 32 31 31 31 30 32 36 36 33 29 27 26 24 24 24
34 33 32 30 30 30 30 31 31 31 31 30 31 36 37 36 29 28 27 26 24 23
31 31 31 28 29 29 29 30 30 30 30 30 30 36 37 36 29 28 27 26 25 25
30 29 28 28 28 29 28 29 30 31 29 29 30 36 37 35 26 27 25 26 26 26
28 26 26 26 25 28 28 29 29 29 29 29 29 34 37 34 24 23 23 24 25 27
28 26 25 24 20 22 25 26 25 24 26 26 26 28 36 35 25 24 22 21 21 23

GFSNIL_sfc_temp_015.txt.gz
Temp
43 43 44 44 44 43 42 42 42 40 42 41 40 39 40 41 41 41 41 40 39 40
41 41 42 40 41 42 42 43 41 40 40 39 39 39 38 38 37 38 39 39 39 38
40 40 40 39 39 39 40 40 38 38 39 38 39 39 38 38 37 37 37 37 37 36
39 39 38 37 38 39 38 38 37 37 38 38 37 37 37 38 36 36 35 36 35 34
39 37 37 38 38 38 37 37 37 37 37 37 37 36 36 36 35 35 33 34 34 33
39 38 37 37 38 36 38 37 37 36 36 36 36 36 36 37 35 35 35 34 33 33
37 37 38 38 38 36 36 37 36 36 36 36 36 36 35 36 35 35 35 34 34 33
36 36 36 35 36 36 34 36 36 35 35 36 35 35 34 35 34 34 34 33 33 33
34 34 34 34 34 34 33 34 34 33 34 34 34 38 38 36 34 33 33 31 31 32
31 31 31 32 32 31 32 33 32 33 33 33 34 38 39 38 34 33 33 32 30 29
29 28 29 29 30 31 31 31 31 32 33 32 34 37 39 37 34 33 33 33 31 30
25 25 28 27 28 29 29 29 30 31 31 31 32 37 38 38 34 31 31 32 31 31
23 25 24 26 26 28 28 28 29 29 30 30 30 35 37 37 34 29 29 29 30 30
21 21 22 23 26 26 26 27 26 26 28 28 29 30 36 37 34 29 27 26 26 28

GFSNIL_sfc_temp_021.txt.gz
Temp
51 51 52 53 53 54 54 55 56 54 53 52 52 53 51 50 49 50 50 50 51 51
49 48 48 49 50 51 52 53 53 53 51 50 50 50 50 48 47 48 48 49 49 49
47 48 48 48 46 46 48 49 49 49 49 48 48 48 47 46 46 46 47 48 47 48
45 45 45 44 45 44 44 45 45 45 44 45 45 46 45 45 45 44 44 46 46 46
43 43 42 42 42 41 42 43 43 43 42 42 43 44 43 43 42 42 42 43 43 44
40 39 38 39 40 39 39 39 40 40 41 41 41 42 42 42 42 42 43 43 43 43
38 38 38 37 36 37 38 38 38 38 38 39 40 40 40 40 41 41 42 43 43 43
37 37 35 34 33 35 35 36 36 36 36 37 37 37 38 38 38 38 39 41 41 42
33 32 32 31 31 33 33 34 34 34 34 34 35 38 39 39 37 37 37 37 39 39
31 30 30 30 30 30 31 32 32 33 34 34 35 38 38 38 36 36 36 36 37 37
31 30 30 28 27 28 29 29 29 31 32 32 34 37 38 37 36 35 36 37 36 36
31 28 27 24 24 26 26 26 26 27 28 28 30 35 36 36 34 34 34 36 37 37
29 26 25 25 23 24 24 24 26 25 26 26 27 33 35 35 33 32 33 34 35 35
26 24 24 23 23 21 20 21 20 21 22 24 26 29 34 35 33 32 32 33 33 35

GFSNIL_sfc_temp_024.txt.gz
Temp
43 42 42 42 41 41 41 42 44 44 44 44 44 44 42 40 38 39 42 40 39 40
41 41 40 40 40 40 40 44 42 41 41 41 41 41 41 37 37 38 38 41 39 38
39 40 40 39 38 38 39 40 39 38 38 38 39 39 38 36 37 36 36 38 37 38
37 37 37 36 36 36 36 38 37 37 37 36 36 37 35 35 36 35 35 36 35 36
37 35 34 34 34 33 34 35 35 36 35 36 36 35 35 35 35 34 34 35 35 36
33 32 32 31 31 32 32 32 32 33 34 34 34 34 35 35 35 35 36 36 35 38
31 31 31 30 29 29 30 29 30 31 31 33 32 33 34 34 34 35 36 36 36 37
31 30 29 28 27 27 28 29 30 30 30 30 32 33 33 33 32 33 35 35 36 37
28 28 27 25 26 26 27 27 27 28 28 29 32 36 38 37 33 33 33 34 35 36
26 26 28 27 27 27 26 26 26 27 27 28 30 35 37 37 34 33 33 33 34 35
26 25 26 25 25 26 26 25 25 25 26 26 28 33 35 36 33 32 32 33 33 33
24 24 25 24 25 25 24 24 23 24 23 23 24 30 32 32 30 30 31 33 33 33
23 21 21 22 22 23 22 22 23 21 22 22 21 27 29 30 27 26 29 31 33 33
17 16 16 16 17 16 16 18 17 17 18 18 19 20 26 28 26 26 27 28 30 32

GFSNIL_sfc_temp_027.txt.gz
Temp
39 38 38 38 38 37 38 39 40 39 39 39 40 41 40 38 37 37 38 41 41 45
37 38 38 38 37 37 36 40 38 37 37 37 37 37 37 36 35 35 35 37 38 40
36 36 36 36 34 34 35 36 35 35 35 35 36 36 35 34 34 34 34 36 35 38
35 35 34 35 34 33 32 34 34 33 32 33 33 33 33 33 33 33 33 34 34 35
36 35 34 32 34 32 32 32 33 33 32 31 31 31 31 32 33 32 32 34 33 34
33 31 31 32 32 32 30 29 30 30 30 31 31 31 31 31 32 33 33 34 34 34
29 30 30 30 29 29 29 28 28 30 30 31 30 31 31 32 31 30 32 33 34 34
29 29 28 27 27 28 27 28 28 29 29 29 30 31 30 31 30 30 31 32 32 33
28 30 29 29 30 29 28 27 27 27 27 26 30 34 35 35 32 32 32 31 32 33
27 27 27 27 27 27 27 28 27 26 26 26 26 32 33 33 31 31 31 31 32 32
24 23 24 24 24 24 25 25 25 25 25 25 26 30 31 31 29 28 29 30 31 31
20 18 19 17 18 19 19 20 20 22 21 21 22 27 28 28 24 24 25 28 29 29
18 14 13 14 13 14 14 15 17 16 17 17 16 22 24 24 21 19 21 23 26 28
13 10 10 9 10 9 9 10 9 10 11 12 14 15 20 22 20 19 18 19 21 25

GFSNIL_sfc_temp_033.txt.gz
Temp
33 33 33 32 32 32 33 34 33 33 33 33 34 34 34 33 33 34 33 34 35 37
32 31 31 31 31 30 32 36 34 33 34 34 33 34 34 31 31 31 33 33 33 34
31 31 31 30 30 30 29 30 30 30 30 29 30 31 31 31 31 30 31 34 32 33
30 30 30 29 29 29 30 29 29 29 28 28 28 28 27 28 29 30 30 31 30 31
31 30 30 29 29 28 28 28 28 28 29 28 28 27 27 27 27 26 28 29 29 30
31 29 29 29 29 28 28 27 27 27 27 27 28 27 28 27 28 27 27 28 28 29
28 28 28 28 27 26 26 25 26 26 27 27 27 28 28 29 27 27 28 29 29 29
28 28 26 25 23 24 24 25 26 25 25 25 26 28 28 29 27 27 27 28 29 29
23 23 22 21 22 22 22 21 21 21 21 21 25 27 28 28 26 27 27 26 27 28
20 19 19 19 19 18 18 18 17 18 18 17 18 23 25 26 24 23 22 23 24 26
18 15 16 15 14 15 15 14 14 14 14 14 16 20 21 22 21 20 20 21 21 22
14 11 12 8 10 11 11 10 9 12 10 9 10 16 19 19 17 17 17 19 20 20
13 6 6 9 8 9 7 10 10 9 9 8 7 13 17 19 16 13 15 17 19 21
10 5 5 5 6 5 4 7 4 5 6 6 8 9 16 19 17 15 14 14 16 19

GFSNIL_sfc_temp_036.txt.gz
Temp
31 31 30 30 29 29 29 30 31 30 31 31 31 32 31 30 30 31 32 33 34 35
30 30 29 28 28 28 28 33 29 28 28 29 29 29 29 27 27 28 29 30 31 32
29 29 28 28 28 28 28 28 28 28 28 28 28 27 26 26 28 27 27 30 28 29
29 29 29 29 28 28 28 28 28 28 27 27 26 26 25 25 26 26 26 27 27 29
30 29 29 28 28 27 27 27 27 27 27 27 27 26 26 25 25 24 25 26 26 27
29 28 28 27 27 27 26 25 25 25 25 25 26 26 26 26 26 26 26 26 26 26
28 28 26 26 25 24 24 24 24 24 24 24 24 25 26 27 26 26 27 27 27 27
28 27 25 23 21 22 22 22 22 22 21 21 22 26 25 25 24 23 24 25 26 27
23 22 20 19 20 20 19 19 19 18 18 17 21 24 25 25 23 22 22 21 22 23
19 18 18 17 17 17 16 16 15 15 15 15 16 21 23 23 21 20 19 20 20 21
17 15 15 14 13 13 13 13 12 12 12 13 15 19 20 22 20 18 18 19 19 19
14 11 12 7 9 10 9 9 8 12 9 8 9 16 19 20 17 16 16 18 19 19
13 7 6 9 6 7 4 9 10 9 8 8 6 13 17 19 17 13 15 16 19 21
11 6 5 3 5 1 1 6 2 4 5 5 7 8 17 20 18 16 15 16 17 19

GFSNIL_sfc_temp_042.txt.gz
Temp
46 46 46 45 45 44 43 42 43 42 42 42 42 42 42 42 41 41 41 41 41 41
45 44 43 43 44 43 43 42 41 41 41 40 40 39 40 39 38 39 39 39 39 39
43 43 43 43 42 41 41 41 40 40 39 39 39 38 38 37 37 37 37 38 37 37
42 42 42 42 41 40 40 39 38 38 37 36 36 36 36 36 36 34 34 36 35 35
41 41 41 40 40 39 38 37 36 36 35 34 34 34 33 33 34 33 32 33 33 33
41 40 40 39 38 38 36 35 34 33 32 31 31 32 33 32 32 32 32 32 30 31
40 40 40 38 36 35 34 33 32 31 30 29 29 30 30 30 31 31 31 30 30 29
40 40 37 34 32 31 30 30 29 28 27 28 28 29 28 29 29 28 28 29 29 29
38 33 31 29 28 28 27 27 26 25 24 24 26 25 26 27 27 27 26 26 26 27
32 30 29 28 27 26 26 25 24 23 23 23 24 23 25 25 26 26 25 24 24 25
30 28 27 25 25 25 24 23 22 22 21 21 22 22 23 24 25 24 24 24 24 24
29 26 25 22 23 23 22 21 20 20 18 17 18 19 22 23 23 23 22 24 25 25
27 24 22 22 21 21 20 19 20 18 18 15 14 17 19 22 23 21 23 24 25 26
25 21 22 20 20 17 16 17 14 14 15 14 15 16 19 21 23 23 23 23 24 25

GFSNIL_sfc_temp_045.txt.gz
Temp
50 50 49 49 48 47 45 44 45 44 44 44 43 43 43 42 41 41 40 40 40 40
48 47 46 46 47 45 45 44 43 43 42 42 42 41 41 39 38 38 39 38 38 38
46 47 46 46 44 43 43 43 42 41 41 41 40 39 39 38 38 36 37 38 37 37
45 45 45 44 43 42 42 41 40 40 39 38 37 37 37 36 36 34 34 36 35 34
44 43 43 42 42 41 40 40 39 38 37 36 36 35 34 34 34 33 33 33 33 32
42 42 42 41 41 40 39 38 36 36 35 34 33 33 34 33 33 33 33 32 31 31
41 42 42 41 40 38 38 36 35 34 33 32 32 32 32 31 31 32 32 32 31 30
42 42 41 38 36 35 34 35 34 32 31 31 30 31 29 30 30 29 29 30 30 30
40 38 35 33 32 31 31 30 29 28 28 28 30 30 27 28 27 28 28 27 28 28
36 33 32 31 30 29 29 29 28 27 27 26 27 28 27 27 26 26 27 26 26 26
33 31 30 29 28 28 29 27 26 26 26 25 26 27 26 26 25 26 26 26 25 25
32 30 29 26 26 27 26 25 24 24 21 21 21 25 24 24 24 24 24 26 26 26
32 30 27 27 25 26 25 24 24 22 22 19 18 22 24 24 23 21 23 24 27 28
31 28 28 26 25 23 21 22 19 19 19 19 18 18 23 24 22 22 22 23 24 26

GFSNIL_sfc_temp_048.txt.gz
Temp
43 41 40 40 38 37 35 35 36 35 35 35 35 35 34 32 32 31 30 31 31 32
40 40 39 38 37 36 36 38 36 35 34 34 34 33 33 30 29 29 29 29 29 30
39 39 38 37 35 35 35 36 35 33 33 33 32 32 31 29 29 28 28 30 29 29
37 38 37 35 35 34 34 34 33 32 32 31 31 30 29 29 29 28 27 28 27 27
37 36 35 34 34 33 32 32 32 31 31 30 30 29 29 28 28 27 27 27 27 26
34 34 33 33 32 32 31 30 30 30 29 29 29 28 28 28 27 26 26 26 26 25
33 33 33 32 31 31 31 29 28 29 29 28 28 28 29 28 26 26 27 27 26 25
33 33 32 31 30 30 29 29 29 28 27 27 27 29 27 28 26 25 25 26 27 27
33 32 31 29 28 28 28 27 27 26 25 24 28 32 30 28 25 26 26 25 25 26
32 33 29 28 27 26 25 25 24 24 24 23 24 31 30 29 26 25 24 25 26 26
32 30 27 26 26 24 24 23 22 22 22 22 24 30 30 29 25 23 24 24 24 24
31 29 27 26 24 25 23 21 20 20 18 18 18 29 29 28 22 22 22 25 25 24
31 29 27 26 23 22 19 22 22 20 17 17 14 25 28 27 21 14 20 21 25 27
28 28 27 24 20 20 18 20 16 17 16 15 16 16 26 27 23 19 17 18 20 23

GFSNIL_sfc_temp_051.txt.gz
Temp
41 41 40 39 38 37 36 35 34 33 33 33 33 33 32 30 30 29 28 29 29 30
39 39 38 36 36 35 35 36 33 33 32 32 32 32 30 29 28 28 28 27 28 29
38 37 37 37 35 34 34 34 33 32 31 31 31 30 29 27 28 27 26 28 28 27
36 37 36 35 34 33 32 32 31 31 30 30 29 29 28 27 27 27 27 26 26 27
36 35 34 34 33 31 31 31 30 30 30 29 29 28 28 28 27 26 27 27 26 25
34 33 33 32 31 31 30 29 29 29 29 28 28 28 28 27 27 26 26 26 26 25
33 33 32 32 31 30 29 28 28 28 28 28 28 28 28 28 26 26 26 26 26 25
33 32 32 31 30 29 29 28 28 27 27 27 27 28 27 28 26 25 25 25 27 26
33 33 31 30 30 29 28 27 26 26 25 24 28 32 34 29 25 26 26 24 25 26
33 32 31 31 29 28 27 25 25 24 24 23 25 33 34 32 27 25 24 24 25 26
32 32 30 29 29 26 25 25 24 23 24 23 24 32 34 33 26 24 23 23 24 24
33 31 29 28 27 27 25 23 23 22 20 20 20 32 33 31 23 23 22 24 24 24
34 31 29 30 27 26 25 25 23 22 20 20 18 29 32 31 22 14 20 20 24 26
30 31 31 29 25 21 23 21 20 19 18 17 18 18 30 31 24 20 17 17 18 22

GFSNIL_sfc_temp_057.txt.gz
Temp
43 43 42 40 38 37 35 34 32 32 32 32 32 31 31 30 30 29 28 28 29 29
42 41 40 34 34 34 33 35 32 32 32 31 31 31 30 30 28 28 27 27 28 27
41 40 36 35 34 33 34 34 32 31 31 30 30 29 29 28 28 27 26 27 27 27
38 35 36 36 34 33 34 33 32 32 31 30 30 29 28 27 27 27 27 26 27 27
36 35 35 34 33 33 33 33 32 32 31 30 30 28 29 28 28 27 27 26 26 26
34 34 35 33 33 33 32 31 31 31 31 30 30 30 29 29 28 27 27 26 26 25
34 35 36 35 33 32 32 31 31 31 31 30 30 30 30 29 27 26 26 26 26 25
35 37 35 33 33 32 32 32 32 30 29 29 30 31 30 29 26 26 25 25 27 26
35 33 32 31 31 31 31 29 30 29 29 28 31 35 36 31 27 27 26 25 25 25
33 32 32 31 31 30 29 30 29 29 28 28 29 36 37 36 28 26 26 26 26 26
33 32 31 30 30 30 29 29 29 28 29 29 28 36 37 36 27 26 25 25 25 25
33 32 31 30 29 29 28 27 27 29 27 27 28 35 37 36 27 26 25 25 24 24
34 33 30 30 29 29 29 28 28 26 26 26 27 33 36 36 27 23 24 23 25 26
32 32 32 31 29 29 28 27 26 25 26 25 25 25 35 36 27 26 22 21 22 23

GFSNIL_sfc_temp_060.txt.gz
Temp
44 44 44 44 42 42 40 35 34 32 32 31 32 32 32 32 31 30 31 29 29 29
44 43 42 41 41 40 39 35 32 32 31 31 31 32 31 31 30 30 29 29 28 28
43 43 42 40 38 36 36 35 32 31 31 31 31 31 31 29 29 29 28 29 28 28
41 40 39 38 38 37 34 32 32 32 32 31 31 30 30 30 29 29 28 28 28 28
39 38 38 38 36 35 32 33 32 32 32 32 31 31 31 30 30 29 28 28 28 26
37 37 37 36 35 33 32 32 32 32 32 32 31 30 31 31 30 30 29 28 27 26
37 37 37 35 34 33 33 32 32 32 32 32 31 31 31 31 29 29 29 28 27 26
36 37 36 34 33 33 32 33 32 31 31 30 31 32 31 31 29 29 28 27 28 26
35 35 34 32 32 32 32 31 31 30 30 29 31 36 36 32 29 29 28 27 26 26
34 33 33 32 31 31 30 31 30 30 29 29 30 37 38 36 30 29 28 28 27 26
33 33 32 31 31 31 31 30 30 29 30 30 30 37 37 36 29 28 28 27 27 26
33 32 31 30 30 31 30 29 29 28 27 28 27 36 36 35 30 28 27 27 27 26
34 32 31 31 30 29 28 28 27 27 27 27 28 32 33 36 30 27 27 26 26 28
33 32 32 30 29 27 27 27 26 26 26 27 27 27 34 35 30 29 27 26 24 25

GFSNIL_sfc_temp_063.txt.gz
Temp
47 46 46 46 44 43 42 41 39 39 39 39 38 38 39 39 38 39 39 38 38 38
46 46 46 45 44 43 43 41 39 38 38 38 38 38 38 38 36 37 36 36 36 35
45 45 45 44 42 40 39 39 36 36 37 37 37 36 37 35 35 35 34 35 34 33
42 42 43 42 41 39 38 37 37 36 36 36 35 35 36 35 34 34 34 33 34 33
40 41 40 40 39 38 38 37 36 35 36 35 35 35 35 34 34 33 33 33 32 31
40 40 40 38 37 37 36 36 35 35 35 35 34 34 35 35 34 34 33 32 32 31
39 39 39 38 36 36 36 35 34 35 35 35 34 33 33 33 32 32 32 32 32 31
39 39 38 36 35 35 35 35 35 34 33 33 33 33 33 33 32 31 31 30 31 31
37 36 35 34 34 34 33 33 32 32 32 32 33 36 37 33 31 31 31 29 29 30
35 34 34 34 33 32 32 32 32 32 31 31 32 38 37 36 32 31 30 30 30 29
34 33 33 33 32 33 32 31 32 31 31 31 31 36 37 36 31 30 30 30 30 30
33 32 32 31 31 32 31 31 31 31 30 30 30 37 38 35 29 28 28 28 30 30
32 31 30 32 31 31 31 30 30 27 28 29 28 36 36 35 31 29 29 27 27 29
31 30 31 31 31 30 28 27 26 26 26 27 28 31 35 36 31 30 30 28 28 28

GFSNIL_sfc_temp_069.txt.gz
Temp
63 63 62 60 58 55 50 50 47 45 47 48 50 50 49 49 48 49 48 51 49 48
62 62 61 60 58 56 54 53 50 46 46 46 48 48 49 47 47 48 48 49 46 45
60 61 60 60 57 55 53 51 48 47 45 46 46 45 46 44 44 46 46 45 44 43
58 59 58 57 55 54 53 49 45 43 43 43 42 43 44 43 42 43 42 42 41 40
57 57 55 55 54 52 47 43 45 42 41 41 41 41 42 41 42 41 39 40 39 38
54 54 53 52 51 47 45 42 39 40 38 38 39 39 40 40 40 41 40 39 38 36
52 53 52 52 49 45 44 39 39 38 38 38 38 38 36 37 39 39 39 39 38 36
52 52 51 49 46 44 41 40 38 37 37 36 36 36 36 37 37 37 36 36 36 36
48 46 44 42 40 39 38 37 36 35 35 35 36 39 40 38 36 35 35 33 33 33
41 40 39 38 37 37 36 35 34 35 35 34 35 38 39 38 35 35 34 34 33 32
39 38 38 37 36 36 36 34 34 34 34 34 33 37 39 37 34 34 34 34 33 32
38 36 36 35 35 36 34 33 33 33 32 32 32 36 38 36 33 33 33 31 32 32
37 35 35 35 34 34 34 32 32 31 31 31 31 36 37 33 33 28 31 30 31 31
35 34 35 34 34 33 31 30 29 29 30 29 32 34 35 33 30 30 28 28 29 31

GFSNIL_sfc_temp_072.txt.gz
Temp
55 53 54 52 51 50 49 49 48 48 49 49 50 49 48 47 47 47 46 46 45 46
53 53 54 52 51 50 49 48 46 46 46 47 48 48 48 46 46 46 46 46 44 42
52 52 52 51 50 48 47 47 45 45 45 45 46 46 47 46 46 45 44 41 40 38
50 50 51 50 49 48 46 45 44 43 44 43 43 44 45 43 42 43 40 39 39 37
49 49 49 48 48 46 45 41 41 40 41 41 41 41 42 40 41 40 38 38 37 36
47 47 47 47 46 44 41 38 36 36 38 39 39 39 40 41 40 40 39 38 37 36
46 47 46 46 44 41 38 35 34 35 37 38 38 39 37 37 37 37 38 37 37 36
46 46 45 42 40 37 36 34 34 34 34 35 36 37 36 37 36 35 34 34 34 35
42 41 40 39 37 35 34 33 33 33 34 34 35 39 39 38 35 36 35 33 33 32
37 37 37 36 35 33 33 32 32 32 32 34 34 38 39 39 35 35 35 34 32 30
35 35 33 33 33 31 31 31 31 31 32 33 33 39 39 37 34 34 33 33 31 31
32 32 32 31 30 29 30 28 32 33 30 32 32 38 39 36 33 32 32 31 30 31
31 30 30 30 29 28 28 31 31 31 31 31 31 37 38 36 33 30 28 29 30 31
29 27 27 27 27 28 30 29 29 29 29 29 31 34 37 37 32 30 28 29 29 32

GFSNIL_sfc_temp_075.txt.gz
Temp
52 53 53 52 50 50 50 50 51 51 53 54 53 52 50 49 48 48 47 47 47 45
51 51 51 50 50 50 49 48 49 50 51 50 50 51 49 48 46 47 46 46 45 44
50 50 50 49 49 48 48 47 46 47 48 48 49 48 48 47 46 45 45 46 44 44
49 49 49 49 49 48 46 46 44 44 45 46 46 47 47 47 45 44 44 45 43 42
48 47 47 48 47 46 46 43 44 42 42 44 44 45 45 44 44 43 42 41 40 40
46 46 47 47 45 44 43 42 39 39 40 40 42 42 43 43 42 42 42 41 40 39
46 47 47 45 44 43 41 39 36 37 37 36 37 38 39 40 39 39 39 37 37 35
46 44 44 42 40 39 37 36 35 34 33 34 37 37 37 37 37 37 35 34 34 34
41 40 39 39 38 37 35 34 33 32 32 33 35 39 40 38 36 36 35 33 33 32
37 36 37 37 36 35 34 32 32 31 31 33 35 39 40 39 35 35 34 33 32 31
34 34 33 32 33 32 31 30 29 29 29 33 33 38 40 38 34 34 34 33 32 31
31 32 31 31 30 28 27 26 26 27 28 32 32 37 39 37 32 32 32 32 31 31
31 29 28 29 27 25 26 29 31 31 31 31 31 36 38 37 32 30 30 30 30 32
28 26 26 26 30 31 31 30 29 29 29 30 31 33 37 37 32 30 28 28 28 30

GFSNIL_sfc_temp_078.txt.gz
Temp
52 54 54 51 50 51 51 52 50 51 54 55 56 55 53 51 50 50 49 49 48 50
49 50 51 49 50 51 50 49 47 49 50 51 54 54 53 51 49 49 48 47 47 47
49 49 50 49 49 48 48 47 46 47 48 50 51 52 52 51 50 48 47 47 46 46
47 48 48 49 49 49 47 46 46 47 48 48 49 50 49 50 49 46 46 46 45 44
47 46 46 47 47 46 45 43 45 43 45 46 47 47 47 47 47 45 44 44 43 43
45 45 45 45 45 44 44 42 40 41 41 43 44 44 45 46 46 45 45 44 43 43
45 45 44 44 44 43 42 41 38 39 39 39 41 41 41 41 43 42 42 43 42 41
45 43 43 41 40 39 39 39 38 36 37 35 35 36 37 37 39 39 39 36 37 38
39 38 38 38 38 37 37 36 35 34 35 33 35 38 40 39 37 36 36 35 34 33
35 35 37 36 36 36 35 34 33 33 32 32 33 39 40 39 35 35 36 35 33 31
33 33 33 32 32 33 33 31 31 31 30 30 31 38 39 39 35 34 34 34 33 32
32 32 31 30 30 28 27 25 25 28 29 30 32 37 39 38 33 33 32 32 32 32
31 29 28 29 28 25 26 31 31 32 32 32 33 36 38 37 32 30 30 30 31 31
28 27 27 27 30 31 31 30 30 29 29 30 31 31 38 38 32 31 29 29 28 30

GFSNIL_sfc_temp_084.txt.gz
Temp
52 53 53 52 51 52 52 54 56 57 58 58 58 57 56 54 52 51 50 50 50 50
47 48 49 50 49 49 49 49 50 51 55 56 56 56 56 54 51 51 50 49 49 49
45 46 46 46 46 46 47 47 46 47 47 50 54 55 55 54 52 50 50 49 48 48
44 44 44 44 44 44 45 45 44 44 45 46 46 47 50 52 53 51 49 49 47 47
44 43 43 44 44 44 44 44 44 43 43 44 44 45 45 47 49 49 49 49 48 48
43 42 42 42 42 42 42 41 41 40 40 42 43 46 47 48 48 48 48 49 46 46
39 39 39 39 39 39 39 38 38 38 38 38 39 42 43 42 45 46 46 47 46 45
36 36 35 35 34 34 35 35 35 35 35 35 36 38 40 39 41 42 42 42 41 41
33 33 32 33 33 33 33 33 34 34 33 33 34 38 40 41 39 37 38 38 38 37
31 31 32 32 32 32 32 32 32 31 31 31 32 38 39 39 37 36 36 36 35 35
30 29 29 29 29 30 30 30 30 30 30 29 30 37 39 38 36 35 35 35 35 34
29 28 28 27 31 31 31 27 29 29 29 28 30 37 38 37 34 33 34 34 33 34
27 25 25 27 29 29 26 30 30 29 29 29 31 35 37 36 33 33 33 31 31 32
25 23 23 24 24 26 25 28 24 28 28 26 30 30 35 36 33 33 31 30 29 30

GFSNIL_sfc_temp_087.txt.gz
Temp
53 54 55 54 54 55 55 56 58 59 59 59 58 58 58 56 55 54 52 52 52 52
49 50 50 50 51 52 52 52 53 53 55 58 58 57 57 55 54 53 52 51 51 51
47 48 48 49 49 49 49 50 49 50 50 51 54 55 56 55 54 52 52 51 50 50
46 46 47 47 47 47 47 47 47 47 47 48 49 50 51 53 53 52 52 50 49 49
43 43 43 43 44 44 44 44 45 44 44 45 46 47 47 47 49 49 49 50 48 48
42 42 41 41 41 41 41 41 41 41 42 43 43 45 46 46 47 48 48 48 48 48
38 38 39 39 39 38 38 38 38 39 38 38 39 39 41 42 45 46 46 47 47 47
36 36 36 35 35 35 35 36 36 36 37 37 37 37 38 39 40 40 41 42 43 44
33 33 33 33 33 33 34 34 34 34 34 34 35 38 39 39 38 37 37 38 39 38
31 31 32 31 31 32 32 32 32 33 33 33 34 37 39 39 36 36 37 36 36 35
30 29 29 29 29 31 31 30 31 32 32 32 33 37 38 38 36 36 36 36 35 35
29 27 28 27 28 29 30 31 30 31 31 30 31 35 37 37 35 34 34 35 35 34
27 25 25 26 26 27 27 29 30 30 31 29 29 33 36 36 34 32 33 34 33 33
28 25 26 26 27 26 25 28 28 29 30 29 29 29 34 36 33 32 32 33 32 32

GFSNIL_sfc_temp_093.txt.gz
Temp
65 65 64 63 64 64 63 63 62 63 63 64 63 61 59 58 57 57 56 55 55 54
61 61 61 61 61 60 60 59 59 60 60 61 61 61 61 59 58 56 55 55 54 54
58 58 58 57 55 55 57 56 56 56 56 57 57 58 58 57 57 57 56 55 54 54
54 55 55 54 53 52 53 52 52 52 52 53 53 54 53 53 53 53 53 54 53 53
53 53 52 51 51 50 49 50 50 50 50 50 50 50 49 49 50 50 49 50 50 50
50 50 50 49 49 49 49 49 49 49 47 47 47 47 47 47 46 47 47 47 46 46
46 47 47 47 46 45 46 46 45 45 44 44 44 44 43 42 43 43 43 43 43 43
45 45 43 42 41 41 40 41 41 39 40 41 42 42 39 38 39 39 39 40 40 40
40 38 38 38 37 38 38 39 38 38 38 38 39 40 40 39 37 37 37 38 39 39
36 36 36 36 36 36 37 37 36 37 37 37 37 39 39 38 36 36 37 37 38 37
35 34 34 34 34 35 35 34 34 34 35 35 35 38 38 37 36 36 36 36 36 36
34 32 32 30 32 33 32 32 33 33 33 32 33 36 37 36 34 34 34 35 35 35
33 30 30 32 31 33 32 32 33 33 34 33 32 35 36 35 33 32 33 34 35 35
30 28 30 31 32 32 32 32 32 32 34 34 33 33 35 36 33 32 32 33 33 34

GFSNIL_sfc_temp_096.txt.gz
Temp
58 56 53 53 52 52 51 51 52 52 52 53 53 53 53 53 54 55 54 54 54 54
51 50 50 49 49 49 49 52 50 49 49 50 51 51 50 49 49 49 50 50 50 52
48 48 48 47 46 46 46 47 46 46 46 47 47 48 47 46 47 46 46 47 47 47
46 46 46 45 44 44 44 44 44 44 44 44 44 44 43 43 44 43 43 44 44 44
45 44 43 43 43 43 43 43 43 43 43 43 42 41 41 40 40 40 40 41 41 42
42 42 42 41 42 41 41 41 40 40 39 39 39 39 40 39 38 39 39 39 38 38
40 40 39 39 38 38 38 38 37 37 36 36 36 37 37 35 36 36 37 38 37 37
38 37 37 35 35 34 33 35 34 33 33 34 35 37 35 34 34 33 34 35 35 35
35 34 33 33 33 32 32 32 32 32 32 32 35 39 40 38 33 33 32 32 33 33
33 32 32 31 31 31 31 31 30 30 30 30 30 37 38 38 33 32 32 33 35 35
31 29 30 29 28 29 29 29 28 29 29 29 31 36 37 37 33 31 31 32 34 34
29 26 27 24 26 27 26 26 25 28 25 26 32 35 36 36 33 33 33 34 35 34
28 24 23 25 24 25 23 29 29 32 33 32 34 36 36 35 33 31 32 33 34 34
26 22 22 23 23 21 22 26 22 27 28 33 30 28 37 37 34 33 32 33 33 33

GFSNIL_sfc_temp_102.txt.gz
Temp
56 53 53 53 51 49 46 44 45 45 45 45 45 45 44 43 43 42 41 41 42 43
50 49 48 46 46 44 43 45 43 43 42 43 42 42 42 40 39 39 39 39 39 39
45 46 44 44 42 41 41 41 41 40 40 40 40 40 40 38 38 37 37 38 37 37
43 42 42 41 40 40 39 39 39 39 38 38 38 38 37 37 36 35 35 35 35 35
42 41 40 38 38 38 37 37 37 37 37 37 36 36 35 34 34 33 33 33 33 33
39 38 37 36 37 36 35 35 35 35 35 34 34 34 34 34 33 32 32 32 31 31
36 37 36 35 34 34 34 34 33 33 32 32 32 32 33 33 32 32 32 32 31 31
35 35 33 32 32 32 32 32 32 32 31 31 32 33 33 33 32 33 31 30 32 35
33 32 31 31 32 32 32 31 32 31 31 30 32 37 37 36 33 34 32 30 32 34
31 31 32 32 32 31 31 31 30 30 29 29 29 36 36 36 34 33 33 33 33 33
32 31 31 30 30 30 30 30 29 29 28 28 30 35 37 37 34 34 34 34 34 33
31 29 28 27 27 28 27 25 24 27 24 23 26 34 37 35 33 31 30 32 34 34
29 28 27 28 27 26 25 26 26 26 24 23 20 30 35 35 28 27 28 30 32 35
28 26 26 26 25 23 22 22 16 19 19 17 20 23 34 36 29 28 32 32 32 34

GFSNIL_sfc_temp_105.txt.gz
Temp
58 58 56 54 53 50 49 47 45 44 43 43 43 42 42 40 40 39 38 38 38 39
53 52 51 49 49 47 46 44 42 41 41 41 41 40 39 37 37 37 37 36 36 36
48 47 47 47 45 42 41 41 40 39 39 39 38 38 37 36 36 35 35 35 34 34
44 46 44 42 41 40 39 39 38 38 37 37 36 36 35 35 34 34 33 33 33 32
42 42 41 40 38 37 37 36 36 36 35 35 35 34 34 33 33 32 31 31 31 30
39 39 38 37 36 36 35 34 35 35 34 33 33 33 32 32 32 31 30 30 30 29
37 37 37 35 35 34 34 33 33 32 32 32 32 32 32 32 31 30 30 31 31 33
35 35 33 33 33 32 32 32 32 30 30 31 32 32 32 32 32 31 31 32 33 34
34 33 33 32 31 31 31 30 31 30 30 29 32 37 37 34 31 31 31 31 32 33
33 33 32 31 31 31 31 31 30 30 30 29 30 37 36 36 32 31 31 31 32 32
32 31 30 30 30 30 30 30 29 29 29 30 31 36 37 37 32 31 31 31 31 33
32 30 29 29 28 29 28 26 26 28 27 27 28 33 35 36 30 31 30 31 30 32
32 31 30 29 28 26 25 27 28 28 27 25 22 30 34 35 28 22 27 28 30 32
30 29 29 28 26 25 25 26 25 25 24 24 22 24 34 35 29 26 24 24 25 28

GFSNIL_sfc_temp_108.txt.gz
Temp
58 61 60 57 55 53 50 48 47 46 44 43 43 41 40 39 38 37 36 36 36 36
59 56 54 52 51 49 47 46 45 42 41 40 40 39 38 36 35 35 35 34 35 35
54 53 51 50 47 47 45 44 41 39 38 37 37 37 36 35 35 34 34 34 33 33
48 48 48 47 46 44 43 39 38 38 37 37 36 36 34 34 33 33 32 32 31 31
45 45 44 43 40 42 38 37 37 36 36 35 34 34 34 32 32 31 31 31 30 29
42 42 41 38 38 37 36 35 34 35 34 34 33 32 32 32 31 30 30 29 29 30
40 40 38 37 36 36 35 34 33 33 33 33 32 32 32 32 30 30 30 30 31 32
37 36 36 35 34 33 33 33 33 32 31 31 32 32 32 32 31 31 30 31 32 33
35 34 34 33 33 33 32 32 31 31 31 30 32 38 36 33 31 31 31 30 31 32
34 34 33 33 32 32 31 30 30 30 30 30 32 37 37 35 32 31 31 31 31 32
33 33 31 31 31 30 30 29 29 29 29 30 31 38 37 36 32 31 31 31 31 31
33 31 31 30 29 29 28 27 27 28 27 28 29 36 37 36 32 32 32 32 31 30
33 32 31 31 29 27 28 29 29 28 26 27 27 33 35 35 31 28 29 29 30 31
32 32 31 30 28 27 27 27 25 25 24 25 26 28 34 36 32 29 26 26 26 29

GFSNIL_sfc_temp_111.txt.gz
Temp
64 64 64 62 58 56 54 52 50 49 48 47 47 47 46 45 43 43 43 43 43 42
62 61 60 57 56 53 50 49 47 47 46 45 45 44 44 42 41 41 40 40 40 40
59 58 56 54 51 50 47 46 45 44 44 43 42 42 42 40 39 39 38 38 38 38
53 53 52 51 49 48 46 45 44 43 42 41 40 40 40 39 38 37 37 37 37 36
47 48 48 48 47 45 43 44 42 41 40 39 39 39 38 38 37 37 36 35 35 35
44 46 46 44 43 43 43 41 40 39 39 38 37 37 37 37 36 35 35 35 34 34
42 44 43 42 41 40 41 39 38 38 37 37 36 36 35 35 34 33 33 34 34 34
41 41 39 38 38 37 38 38 37 36 35 35 35 35 35 35 34 33 33 33 34 35
37 37 36 36 35 36 35 35 35 34 34 33 34 38 37 35 34 33 32 32 33 34
36 35 36 35 35 34 34 34 33 33 33 33 35 38 37 36 34 33 33 33 33 33
35 35 34 34 34 33 33 33 32 32 33 33 34 38 38 35 33 33 33 33 33 33
36 34 33 32 32 32 32 31 31 32 31 32 33 38 38 35 33 32 33 33 33 33
35 35 34 34 32 31 33 31 31 30 31 30 32 37 38 36 33 31 31 32 32 31
35 35 35 33 31 31 30 30 29 29 28 28 29 32 37 37 32 32 31 30 30 31

GFSNIL_sfc_temp_114.txt.gz
Temp
70 70 71 72 71 68 65 63 57 57 57 53 52 51 52 53 53 54 52 51 51 49
67 66 66 69 70 68 65 58 52 52 51 49 49 51 54 51 49 50 49 48 48 47
64 64 64 64 63 62 58 54 53 49 50 47 48 51 52 49 49 47 46 46 46 45
65 63 60 58 55 54 52 51 52 53 48 47 47 50 50 48 47 46 44 45 44 43
62 60 57 59 56 53 49 52 47 50 47 48 48 48 47 45 46 45 43 43 42 41
56 56 55 53 53 51 47 48 44 48 46 46 46 46 46 45 44 44 43 42 42 40
53 52 52 50 48 47 46 44 42 45 44 44 45 45 43 43 42 41 41 40 40 39
48 49 46 44 42 40 43 41 44 41 43 43 43 41 40 40 40 39 38 38 37 38
44 40 39 38 37 37 38 38 40 39 40 40 38 39 39 40 38 38 36 35 36 36
40 39 38 36 36 36 36 38 37 39 39 38 38 39 39 38 38 37 37 36 35 34
38 37 37 36 36 35 37 36 36 37 38 38 37 39 38 36 37 37 37 36 35 34
38 36 36 35 36 36 35 35 36 36 35 35 36 38 38 36 35 34 34 35 35 35
38 36 36 37 35 35 36 35 36 34 35 34 34 38 38 36 35 32 33 33 33 32
38 36 37 36 36 34 34 34 33 33 33 33 34 36 38 37 34 34 32 32 32 33

GFSNIL_sfc_temp_117.txt.gz
Temp
73 73 73 73 72 70 68 67 67 64 62 58 57 56 53 53 53 56 55 54 52 50
73 72 71 72 73 71 70 68 64 61 57 55 53 53 53 50 49 51 51 49 48 47
71 70 70 70 69 67 68 62 60 55 54 52 52 52 52 50 50 48 47 46 46 45
68 68 67 65 65 61 59 58 56 54 52 52 50 52 50 49 48 46 45 45 44 44
66 64 61 61 59 56 54 53 53 51 50 50 49 50 49 47 47 45 42 43 42 42
60 61 61 58 55 53 52 50 49 48 48 48 47 47 47 46 46 45 44 42 41 41
56 58 58 58 54 51 50 48 48 46 46 46 47 46 44 44 44 44 43 41 42 40
54 54 52 47 46 44 46 45 44 42 40 40 43 43 42 42 41 40 39 39 39 39
48 45 42 41 40 39 38 39 39 40 40 40 40 42 42 41 39 38 36 35 35 37
41 40 39 38 37 37 38 38 38 38 39 38 38 41 41 40 38 37 36 35 34 34
39 38 37 36 36 37 37 37 37 38 38 39 38 40 40 38 37 37 36 36 35 34
38 36 36 35 36 36 35 35 36 36 36 36 36 39 38 37 36 35 35 35 35 34
38 36 35 36 36 36 35 34 34 33 34 34 35 39 38 37 35 33 33 33 33 33
36 35 36 36 35 34 34 33 33 33 33 33 34 36 38 38 35 34 33 32 32 33

GFSNIL_sfc_temp_123.txt.gz
Temp
67 66 66 66 66 65 64 65 65 64 63 62 62 61 60 59 59 58 58 55 53 52
67 66 66 66 65 66 65 65 63 63 62 62 61 59 58 58 56 55 54 55 52 49
65 65 67 65 64 64 64 63 61 60 61 57 57 56 56 55 52 53 48 45 44 43
60 61 61 64 63 63 61 61 61 61 60 57 55 54 54 52 50 50 46 44 44 41
56 57 58 61 61 59 60 57 58 57 56 54 53 52 52 50 49 49 46 43 42 40
52 54 55 56 57 57 56 54 52 52 52 51 51 50 50 50 48 48 47 44 41 41
49 50 51 52 52 53 53 52 50 50 50 49 48 48 47 46 46 46 44 43 42 40
47 47 47 47 47 46 47 48 47 45 44 44 45 44 42 41 43 41 40 39 39 39
43 42 42 41 40 40 41 42 41 40 41 40 42 43 43 43 41 40 38 36 37 37
38 38 37 36 36 37 37 36 37 38 38 38 39 42 42 41 41 39 38 37 36 37
37 36 36 35 35 35 35 37 37 37 37 37 37 41 41 39 37 37 37 37 37 36
35 32 33 31 32 36 35 34 35 34 35 35 35 40 40 38 35 35 35 35 36 36
35 30 30 31 29 29 33 33 33 34 34 34 34 39 40 38 35 34 34 34 34 33
31 28 29 28 28 28 32 33 33 32 32 33 34 35 39 39 35 35 34 33 32 33